Tracking 19908 objects as of 19-Oct-2019
HD Live streaming from Space Station
objects crossing your sky now

COSMOS 1275 DEB

Track COSMOS 1275 DEB now!
10-day predictions


NORAD ID: 14364
Int'l Code: 1981-053JA
Perigee: 843.7 km
Apogee: 893.6 km
Inclination: 82.8 °
Period: 102.2 minutes
Semi major axis: 7239 km
RCS: 0.0121 m2 (small)
Launch date: June 4, 1981
Source: Commonwealth of Independent States (former USSR) (CIS)
Launch site: PLESETSK MISSILE AND SPACE COMPLEX (PKMTR)

Note: This is SATELLITE DEBRIS
aabbcc
Your satellite tracking list
Your tracking list is empty




NASA's NSSDC Master Catalog

Two Line Element Set (TLE):
1 14364U 81053HX  19291.37511914 +.00000843 +00000-0 +47250-3 0  9994
2 14364 082.7829 084.4903 0034480 252.1245 107.6168 14.09364494883523
Source of the keplerian elements: AFSPC